Tracking 19638 objects as of 20-May-2019
HD Live streaming from Space Station
objects crossing your sky now

GALAXY 1

Track GALAXY 1 now!
GALAXY 1 is classified as:


NORAD ID: 14158
Int'l Code: 1983-065A
Perigee: 35,807.2 km
Apogee: 35,845.4 km
Inclination: 15.2 °
Period: 1,437.8 minutes
Semi major axis: 42197 km
RCS: 4.5709 m2 (large)
Launch date: June 28, 1983
Source: United States (US)
Launch site: AIR FORCE EASTERN TEST RANGE (AFETR)
aabbcc
Your satellite tracking list
Your tracking list is empty




NASA's NSSDC Master Catalog

Two Line Element Set (TLE):
1 14158U 83065A   19139.91243417 -.00000117  00000-0  00000+0 0  9994
2 14158  15.1579   3.1416 0004519 341.6291  27.3581  1.00155791104863
Source of the keplerian elements: AFSPC